Simultaneous Nadir Overpasses (SNOs) Predictions

Prediction of SNOs between GOES-16 and NOAA-20 Satellite Orbit:

Table of predicted SNOs for the next 14.0 days since TLE Epoch: 9/7/2019
Index Date Time (GOES-16) GOES-16 Lat,Lon NOAA-20 Lat,Lon Distance(km) Time Diff (sec)
1 09/07/2019 06:22:47 -0.01, -75.19 -0.05, -74.88 35.62 80
2 09/09/2019 18:26:00 0.00, -75.20 -0.13, -75.66 52.56 80
3 09/10/2019 18:09:57 0.00, -75.21 0.93, -71.14 464.41 80
4 09/12/2019 06:31:45 0.00, -75.22 0.24, -76.41 134.98 80
5 09/13/2019 06:10:20 0.00, -75.23 -0.76, -71.88 382.29 80
6 09/14/2019 18:32:18 -0.00, -75.25 -0.41, -77.19 220.80 80
7 09/15/2019 18:16:13 -0.00, -75.26 0.59, -72.66 296.93 80
8 09/17/2019 06:38:02 0.00, -75.29 0.58, -77.93 301.22 80
9 09/18/2019 06:16:37 0.00, -75.30 -0.42, -73.40 216.61 80
10 09/19/2019 18:38:34 -0.00, -75.32 -0.74, -78.71 385.82 80
11 09/20/2019 18:22:30 -0.00, -75.34 0.26, -74.18 132.23 80




NCC Satellite Simultaneous Nadir Overpasses (SNOs) Prediction Service
